Location: Caixon
(43.4106°N, 0.0273°E)
Time: 21:19:03
(UTC+00:00)

Cosmos 1697 Rocket - Pass Details

Date: 16 October 2021
Orbit: 834 x 842 km, 71.0° (Epoch: 06 December)

Event Time Altitude Azimuth Distance (km) Brightness Sun altitude
Exits shadow 02:50:10 28° 94° (E) 1,523 4.4 -37.1°
Drops below altitude 10° 02:53:22 10° 122° (ESE) 2,442 5.4 -36.6°
Sets 02:56:00 0° 131° (SE) 3,371 6.1 -36.2°
